Other Public Products
Issued by NWS Grand Forks, ND

Home | Current Version | Previous Version | Text Only | Print | Product List | Glossary Off
Versions: 1 2 3 4 5 6 7 8 9 10 11 12 13 14 15 16 17 18 19 20 21 22 23 24 25 26 27 28 29 30 31 32 33 34 35 36 37 38 39 40 41 42 43 44 45 46 47 48 49 50

000
FPUS83 KFGF 242031
OPUFGF
PRAIRIE TO PINES WEATHER ROUNDUP
NATIONAL WEATHER SERVICE EASTERN NORTH DAKOTA/GRAND FORKS ND
300 PM CDT SUN MAY 24 2015

 **SATELLITE DATA USED TO AUGMENT SKY COVER AT AUTOMATED STATIONS**
 *****  WEATHER ACROSS EASTERN NORTH DAKOTA  *****

CITY           SKY/WX    TMP DP  RH WIND       PRES   REMARKS
GRAND FORKS    CLOUDY    74  48  39 SE9       29.96F
GRAND FORKS AF CLOUDY    74  48  40 SE9       29.97F
GRAND CITY NWS   N/A     72 N/A N/A E13         N/A
BUXTON           N/A     73  49  41 SE12        N/A
DEVILS LAKE    CLOUDY    72  48  43 SE13      29.97F
FARGO          CLOUDY    69  51  52 E16       29.94F
WAHPETON ARPT  CLOUDY    68  50  52 SE10      29.93F
$$

 *****  WEATHER ACROSS CENTRAL AND WESTERN NORTH DAKOTA  *****

CITY           SKY/WX    TMP DP  RH WIND       PRES   REMARKS
JAMESTOWN      CLOUDY    69  48  47 E13       29.95F
BISMARCK       CLOUDY    67  50  54 E13       29.97F
MINOT          MOSUNNY   73  42  32 NE13      29.97F
MINOT AFB      MOSUNNY   76  43  31 E13       29.96F
GARRISON         N/A     71  49  45 SE15      29.97F
WILLISTON      SUNNY     76  39  26 SE18G28   29.97F
DICKINSON      CLOUDY    64  49  57 E10G20    29.96F
HETTINGER      CLOUDY    59  49  69 E16       29.98F
$$

 *****  OTHER OBSERVATIONS NORTHEAST NORTH DAKOTA  *****

CITY           SKY/WX    TMP DP  RH WIND       PRES   REMARKS
WALHALLA         N/A     77  41  27 E12       29.97F
LANGDON        FAIR      77  43  29 VRB7G17   29.99F
CAVALIER       FAIR      77  43  29 SE9       29.96F
GRAFTON        FAIR      75  48  38 SE8G14    29.97F
CANDO          FAIR      75  41  29 SE17G23   29.98S
FORT TOTTEN      N/A     73  48  40 SE6       29.95S
ROLLA            N/A     75  36  23 E8        29.99S
RUGBY          NOT AVBL
 ***** THE ABOVE OBSERVATIONS ARE NON NWS ARE NOT QUALITY
        CONTROLLED AND MAY MIS-REPORT RAIN FOR SNOW...
$$

 *****  OTHER OBSERVATIONS SOUTHEAST NORTH DAKOTA *****

CITY           SKY/WX    TMP DP  RH WIND       PRES   REMARKS
COOPERSTOWN    NOT AVBL
VALLEY CITY    CLOUDY    68  50  52 E16G22    29.96S
OAKES            N/A     63  55  77 E16       29.93F
GWINNER        NOT AVBL
SHEYENNE NWR     N/A     68  52  56 E12       29.95S
BUFFALO        NOT AVBL
WYNDMERE         N/A     70  52  52 E12         N/A
 ***** THE ABOVE OBSERVATIONS ARE NON NWS ARE NOT QUALITY
       CONTROLLED AND MAY MIS-REPORT RAIN FOR SNOW...
$$

  *****  WEATHER ACROSS NORTHERN MINNESOTA  *****

CITY           SKY/WX    TMP DP  RH WIND       PRES   REMARKS
FLAG ISLAND    MOSUNNY   63  55  77 S6        29.96F
WARROAD        PTSUNNY   77  46  33 E7        29.98F
ROSEAU         PTSUNNY   79  39  24 CALM      29.97F
HALLOCK        PTSUNNY   79  39  24 E6        29.96F
THF RVR FALLS  CLOUDY    73  45  35 SE7       29.98F
HALSTAD          N/A     71  45  38 E13         N/A
FOSSTON        CLOUDY    70  48  46 E5        29.99F
BAUDETTE       PTSUNNY   77  42  28 NE3       29.98F
WASKISH        CLOUDY    72  52  49 CALM      29.98F
CROOKSTON      CLOUDY    75  48  38 SE8       29.96F
$$
  *****  WEATHER ACROSS CENTRAL AND WEST MINNESOTA  *****

CITY           SKY/WX    TMP DP  RH WIND       PRES   REMARKS
BEMIDJI        CLOUDY    67  47  49 NE6       30.00F
PARK RAPIDS    CLOUDY    71  48  43 SE10G16   29.98F
WADENA         CLOUDY    66  52  59 SE9       29.96F
DETROIT LAKES  CLOUDY    68  50  52 E9G17     29.97F
MOORHEAD       CLOUDY    72  48  43 E12G17    29.95F
FERGUS FALLS   CLOUDY    68  52  56 SE14G21   29.94F
ELBOW LAKE     DRIZZLE   62  56  82 E10       29.94F
MORRIS MN      CLOUDY    63  57  82 E13       29.92F
STAPLES        CLOUDY    66  50  55 E7        29.97F
WHEATON        CLOUDY    64  54  68 E17       29.93F
$$
  *****  WEATHER ELSEWHERE ACROSS MINNESOTA  *****

CITY           SKY/WX    TMP DP  RH WIND       PRES   REMARKS
DULUTH         CLOUDY    71  45  39 E7        30.01F
INTRNTL FALLS  PTSUNNY   77  40  26 CALM      29.98F
ELY            PTSUNNY   75  39  27 CALM      29.98F
CLOQUET        CLOUDY    70  46  43 E5        30.00F
BRAINERD       CLOUDY    66  51  58 SE7       29.99F
HIBBING        CLOUDY    71  45  39 S9        30.01F
ALEXANDRIA     LGT RAIN  61  57  87 E9        29.96F
SAINT CLOUD    LGT RAIN  62  56  80 E8        29.97F
MINNEAPOLIS    LGT RAIN  61  58  90 E10       29.95F
$$

  *****  WEATHER ACROSS SOUTH DAKOTA  *****

CITY           SKY/WX    TMP DP  RH WIND       PRES   REMARKS
SIOUX FALLS    LGT RAIN  62  60  93 E9        29.83F
BROOKINGS      CLOUDY    59  57  94 E12       29.88F
WATERTOWN      LGT RAIN  59  57  93 E12       29.89F FOG
HURON          CLOUDY    63  58  83 E10       29.86F
SISSETON         N/A     65  57  75 SE13      29.91F
ABERDEEN       CLOUDY    66  53  63 E12       29.90F
MITCHELL       CLOUDY    64  61  90 E12       29.84F
PIERRE         CLOUDY    62  56  80 E20       29.86F
MOBRIDGE       CLOUDY    71  51  49 E15G24    29.89F
RAPID CITY     LGT RAIN  55  53  93 NE15      29.89F FOG
$$

  *****  SOME WEATHER IN NEARBY STATES *****

CITY           SKY/WX    TMP DP  RH WIND       PRES   REMARKS
GLASGOW MT     PTSUNNY   74  37  26 E10G21    29.96F
GREAT FALLS MT CLOUDY    60  42  51 NE7       30.05F
CHEYENNE WY    PTSUNNY   57  39  51 E9        29.87F
SCOTTSBLUFF NE SUNNY     66  49  54 MISG      29.82F
OMAHA NE       CLOUDY    68  61  78 SW3       29.81S
DES MOINES IA  LGT RAIN  69  63  81 S14       29.84F
DAVENPORT IA   HVY RAIN  71  66  84 SE7       29.92F
CHICAGO IL     CLOUDY    70  53  54 E12       30.02F
EAU CLAIRE WI  LGT RAIN  60  57  89 E10       29.98F
LA CROSSE WI   LGT RAIN  61  57  87 SE10      29.95F FOG
$$

  *****  SOME NATIONAL WEATHER *****

CITY           SKY/WX    TMP DP  RH WIND       PRES   REMARKS
LA GUARDIA NY  PTSUNNY   78  47  33 S17       30.24F
RALEIGH NC     MOSUNNY   81  53  37 S8        30.34F
ATLANTA GA     PTSUNNY   80  59  48 SE10      30.26F
NEW ORLEANS LA PTSUNNY   86  71  60 S23G31    30.03F HX  91
OKLAHOMA CITY  LGT RAIN  68  63  84 S3        29.86S
ALBUQUERQUE NM PTSUNNY   69  32  25 S10       29.93F
SALT LAKE CITY MOSUNNY   61  46  57 CALM      29.93F
LOS ANGELES CA MOSUNNY   65  52  62 W14       30.02F
BOISE ID       SUNNY     72  46  39 W5        29.89F
SEATTLE WA     CLOUDY    60  49  66 VRB7      30.12F
$$

*** WEATHER ACROSS MANITOBA...SASKATCHEWAN AND ONTARIO ***
                ***ONTARIO***

CITY           SKY/WX    TMP DP  RH WIND       PRES   REMARKS
GERALDTON      MOSUNNY   77  43  29 W10G18    29.94F
THUNDER BAY    PTSUNNY   82  39  21 S13G24    29.95F
SIOUX LOOKOUT  MOSUNNY   79  37  22 NW10G22   29.97F
TORONTO        PTSUNNY   81  45  28 W14       30.15F
BIG TROUT LK   SUNNY     70  34  26 W15G21    29.86F
PICKLE LAKE    MOSUNNY   70  21  16 NW5       29.95F
DRYDEN         MOSUNNY   81  36  19 SW8       29.96F
KENORA         CLOUDY    79  48  34 N6        29.97F
$$
                *** MANITOBA***

CITY           SKY/WX    TMP DP  RH WIND       PRES   REMARKS
BRANDON        MOSUNNY   81  37  21 SE6       29.97F
DAUPHIN        SUNNY     79  45  29 E9        29.95F
ISLAND LAKE    MOSUNNY   72  30  21 W8        29.94F
PILOT MOUND      N/A     79  34  19 E9G20       N/A
THE PAS        MOSUNNY   73  32  21 N5        29.96F
THOMPSON       MOSUNNY   75  32  20 NW15G23   29.88F
WINNIPEG       PTSUNNY   79  45  29 N5        29.96F
LYNN LAKE      SUNNY     73  23  15 NW15G23   29.91S
CHURCHILL      MOSUNNY   36  28  75 N18G28    30.02R
GILLAM         PTSUNNY   50  34  53 N13       29.95R
$$
                ***SASKATCHEWAN***

CITY           SKY/WX    TMP DP  RH WIND       PRES   REMARKS
ESTEVAN        PTSUNNY   77  36  22 E3G22     29.97F
KINDERSLEY     PTSUNNY   75  28  17 SE5       30.00F
LLOYDMINSTER   MOSUNNY   77  34  20 NE10      29.98F
PRINCE ALBERT  MOSUNNY   77  43  29 VRB3      29.97F
REGINA         PTSUNNY   81  36  19 VRB5      29.97F



USA.gov is the U.S. government's official web portal to all federal, state and local government web resources and services.